Time,TemperatureF,DewpointF,PressureIn,WindDirection,WindDirectionDegrees,WindSpeedMPH,WindSpeedGustMPH,Humidity,HourlyPrecipIn,Conditions,Clouds,dailyrainin,SolarRadiationWatts/m^2,SoftwareType,DateUTC
2013-01-20 00:00:00,43.2,12.2,29.83,SW,217,7.0,14.0,28,0.00,CLR,,0.00,0.0,WeatherDisplay:10.37,2013-01-20 05:00:00,
2013-01-20 00:01:00,43.0,12.0,29.83,SW,225,7.6,11.5,28,0.00,CLR,,0.00,0.0,WeatherDisplay:10.37,2013-01-20 05:01:00,
2013-01-20 00:03:00,43.0,12.0,29.83,SW,225,7.1,9.2,28,0.00,CLR,,0.00,0.0,WeatherDisplay:10.37,2013-01-20 05:03:00,
2013-01-20 00:09:00,42.8,11.9,29.80,SW,225,8.3,12.8,28,0.00,CLR,,0.00,0.0,WeatherDisplay:10.37,2013-01-20 05:09:00,
2013-01-20 00:14:00,42.8,11.9,29.80,SW,225,6.7,11.5,28,0.00,CLR,,0.00,0.0,WeatherDisplay:10.37,2013-01-20 05:14:00,
2013-01-20 00:19:00,42.8,11.9,29.80,West,270,9.2,13.8,28,0.00,CLR,,0.00,0.0,WeatherDisplay:10.37,2013-01-20 05:19:00,
2013-01-20 00:24:00,42.8,11.9,29.80,SW,225,6.2,10.4,28,0.00,CLR,,0.00,0.0,WeatherDisplay:10.37,2013-01-20 05:24:00,
2013-01-20 00:29:00,42.6,11.7,29.80,South,180,8.1,11.5,28,0.00,CLR,,0.00,0.0,WeatherDisplay:10.37,2013-01-20 05:29:00,
2013-01-20 00:34:00,42.6,11.7,29.80,SW,225,7.6,12.7,28,0.00,CLR,,0.00,0.0,WeatherDisplay:10.37,2013-01-20 05:34:00,
2013-01-20 00:39:00,42.8,11.9,29.80,SSW,202,8.3,12.8,28,0.00,CLR,,0.00,0.0,WeatherDisplay:10.37,2013-01-20 05:39:00,
2013-01-20 00:44:00,42.6,12.5,29.80,SW,225,5.4,10.0,29,0.00,CLR,,0.00,0.0,WeatherDisplay:10.37,2013-01-20 05:44:00,
2013-01-20 00:49:00,42.4,12.4,29.80,SW,225,9.2,11.5,29,0.00,CLR,,0.00,0.0,WeatherDisplay:10.37,2013-01-20 05:49:00,
2013-01-20 00:54:00,42.4,12.4,29.80,South,180,7.1,10.4,29,0.00,CLR,,0.00,0.0,WeatherDisplay:10.37,2013-01-20 05:54:00,
2013-01-20 00:59:00,42.3,12.2,29.80,SSW,202,9.2,11.5,29,0.00,CLR,,0.00,0.0,WeatherDisplay:10.37,2013-01-20 05:59:00,
2013-01-20 01:04:00,42.3,12.2,29.80,South,180,6.7,14.0,29,0.00,CLR,,0.00,0.0,WeatherDisplay:10.37,2013-01-20 06:04:00,
2013-01-20 01:09:00,42.3,12.2,29.80,WSW,248,6.7,8.1,29,0.00,CLR,,0.00,0.0,WeatherDisplay:10.37,2013-01-20 06:09:00,
2013-01-20 01:14:00,42.1,12.1,29.80,West,270,6.2,12.7,29,0.00,CLR,,0.00,0.0,WeatherDisplay:10.37,2013-01-20 06:14:00,
2013-01-20 01:19:00,42.3,12.2,29.80,WNW,292,7.1,12.7,29,0.00,CLR,,0.00,0.0,WeatherDisplay:10.37,2013-01-20 06:19:00,
2013-01-20 01:24:00,42.3,12.2,29.80,West,270,6.2,11.5,29,0.00,CLR,,0.00,0.0,WeatherDisplay:10.37,2013-01-20 06:24:00,
2013-01-20 01:29:00,42.3,12.2,29.80,WNW,292,8.1,10.4,29,0.00,CLR,,0.00,0.0,WeatherDisplay:10.37,2013-01-20 06:29:00,
2013-01-20 01:34:00,42.3,12.2,29.80,SW,225,7.6,10.4,29,0.00,CLR,,0.00,0.0,WeatherDisplay:10.37,2013-01-20 06:34:00,
2013-01-20 01:39:00,42.4,12.4,29.80,SW,225,12.3,15.0,29,0.00,CLR,,0.00,0.0,WeatherDisplay:10.37,2013-01-20 06:39:00,
2013-01-20 01:44:00,42.3,12.2,29.80,SW,225,7.6,9.2,29,0.00,CLR,,0.00,0.0,WeatherDisplay:10.37,2013-01-20 06:44:00,
2013-01-20 01:49:00,42.3,12.2,29.80,SSW,202,7.1,12.7,29,0.00,CLR,,0.00,0.0,WeatherDisplay:10.37,2013-01-20 06:49:00,
2013-01-20 01:54:00,42.3,12.2,29.80,South,180,6.2,10.4,29,0.00,CLR,,0.00,0.0,WeatherDisplay:10.37,2013-01-20 06:54:00,
2013-01-20 01:59:00,42.1,12.8,29.80,SW,225,6.2,11.5,30,0.00,CLR,,0.00,0.0,WeatherDisplay:10.37,2013-01-20 06:59:00,
2013-01-20 02:04:00,42.3,13.0,29.80,West,270,5.4,10.4,30,0.00,CLR,,0.00,0.0,WeatherDisplay:10.37,2013-01-20 07:04:00,
2013-01-20 02:09:00,42.1,12.8,29.80,South,180,6.7,11.5,30,0.00,CLR,,0.00,0.0,WeatherDisplay:10.37,2013-01-20 07:09:00,
2013-01-20 02:14:00,42.1,12.8,29.80,West,270,6.7,9.2,30,0.00,CLR,,0.00,0.0,WeatherDisplay:10.37,2013-01-20 07:14:00,
2013-01-20 02:19:00,42.3,13.0,29.80,SSW,202,8.3,15.0,30,0.00,CLR,,0.00,0.0,WeatherDisplay:10.37,2013-01-20 07:19:00,
2013-01-20 02:24:00,42.1,12.8,29.80,SW,225,6.2,10.4,30,0.00,CLR,,0.00,0.0,WeatherDisplay:10.37,2013-01-20 07:24:00,
2013-01-20 02:29:00,42.1,12.8,29.80,SSW,202,8.1,13.7,30,0.00,CLR,,0.00,0.0,WeatherDisplay:10.37,2013-01-20 07:29:00,
2013-01-20 02:34:00,42.1,12.8,29.80,SW,225,5.4,10.4,30,0.00,CLR,,0.00,0.0,WeatherDisplay:10.37,2013-01-20 07:34:00,
2013-01-20 02:39:00,42.1,12.8,29.80,West,270,7.6,9.2,30,0.00,CLR,,0.00,0.0,WeatherDisplay:10.37,2013-01-20 07:39:00,
2013-01-20 02:44:00,41.9,12.7,29.80,SSW,202,5.9,11.5,30,0.00,CLR,,0.00,0.0,WeatherDisplay:10.37,2013-01-20 07:44:00,
2013-01-20 02:49:00,41.9,12.7,29.80,SW,225,7.6,12.7,30,0.00,CLR,,0.00,0.0,WeatherDisplay:10.37,2013-01-20 07:49:00,
2013-01-20 02:54:00,41.9,13.4,29.80,SW,225,7.1,9.2,31,0.00,CLR,,0.00,0.0,WeatherDisplay:10.37,2013-01-20 07:54:00,
2013-01-20 02:59:00,42.1,13.6,29.80,West,270,9.2,12.7,31,0.00,CLR,,0.00,0.0,WeatherDisplay:10.37,2013-01-20 07:59:00,
2013-01-20 03:04:00,42.1,13.6,29.80,SW,225,6.2,8.1,31,0.00,CLR,,0.00,0.0,WeatherDisplay:10.37,2013-01-20 08:04:00,
2013-01-20 03:09:00,41.9,13.4,29.80,SW,225,5.9,12.8,31,0.00,CLR,,0.00,0.0,WeatherDisplay:10.37,2013-01-20 08:09:00,
2013-01-20 03:14:00,42.1,13.6,29.80,SW,225,8.3,10.0,31,0.00,CLR,,0.00,0.0,WeatherDisplay:10.37,2013-01-20 08:14:00,
2013-01-20 03:19:00,42.1,13.6,29.80,West,270,9.7,12.7,31,0.00,CLR,,0.00,0.0,WeatherDisplay:10.37,2013-01-20 08:19:00,
2013-01-20 03:24:00,42.1,13.6,29.83,West,270,5.9,10.9,31,0.00,CLR,,0.00,0.0,WeatherDisplay:10.37,2013-01-20 08:24:00,
2013-01-20 03:29:00,42.3,14.5,29.83,SW,225,10.5,13.8,32,0.00,CLR,,0.00,0.0,WeatherDisplay:10.37,2013-01-20 08:29:00,
2013-01-20 03:34:00,42.4,14.6,29.83,West,270,8.3,15.0,32,0.00,CLR,,0.00,0.0,WeatherDisplay:10.37,2013-01-20 08:34:00,
2013-01-20 03:39:00,42.4,14.6,29.83,WSW,248,8.7,10.4,32,0.00,CLR,,0.00,0.0,WeatherDisplay:10.37,2013-01-20 08:39:00,
2013-01-20 03:44:00,42.4,14.6,29.83,WSW,248,6.2,10.4,32,0.00,CLR,,0.00,0.0,WeatherDisplay:10.37,2013-01-20 08:44:00,
2013-01-20 03:49:00,42.6,14.8,29.83,West,270,8.7,16.1,32,0.00,CLR,,0.00,0.0,WeatherDisplay:10.37,2013-01-20 08:49:00,
2013-01-20 03:54:00,42.6,15.5,29.83,West,270,8.1,12.7,33,0.00,CLR,,0.00,0.0,WeatherDisplay:10.37,2013-01-20 08:54:00,
2013-01-20 03:59:00,42.8,15.6,29.83,West,270,8.7,21.9,33,0.00,CLR,,0.00,0.0,WeatherDisplay:10.37,2013-01-20 08:59:00,
2013-01-20 04:04:00,43.3,15.4,29.83,West,270,16.8,24.2,32,0.00,CLR,,0.00,0.0,WeatherDisplay:10.37,2013-01-20 09:04:00,
2013-01-20 04:09:00,43.2,14.5,29.83,West,270,15.4,19.6,31,0.00,CLR,,0.00,0.0,WeatherDisplay:10.37,2013-01-20 09:09:00,
2013-01-20 04:14:00,42.8,14.2,29.83,West,270,17.8,24.2,31,0.00,CLR,,0.00,0.0,WeatherDisplay:10.37,2013-01-20 09:14:00,
2013-01-20 04:19:00,42.3,14.5,29.83,West,270,17.5,25.3,32,0.00,CLR,,0.00,0.0,WeatherDisplay:10.37,2013-01-20 09:19:00,
2013-01-20 04:24:00,42.1,14.3,29.83,NW,315,20.6,27.6,32,0.00,CLR,,0.00,0.0,WeatherDisplay:10.37,2013-01-20 09:24:00,
2013-01-20 04:29:00,41.9,14.1,29.83,West,270,14.5,18.4,32,0.00,CLR,,0.00,0.0,WeatherDisplay:10.37,2013-01-20 09:29:00,
2013-01-20 04:34:00,41.5,13.8,29.83,West,270,11.8,24.2,32,0.00,CLR,,0.00,0.0,WeatherDisplay:10.37,2013-01-20 09:34:00,
2013-01-20 04:39:00,41.4,13.7,29.83,West,270,11.4,22.3,32,0.00,CLR,,0.00,0.0,WeatherDisplay:10.37,2013-01-20 09:39:00,
2013-01-20 04:44:00,41.2,12.8,29.83,WNW,292,12.3,13.8,31,0.00,CLR,,0.00,0.0,WeatherDisplay:10.37,2013-01-20 09:44:00,
2013-01-20 04:49:00,41.2,11.3,29.83,West,270,17.5,24.2,29,0.00,CLR,,0.00,0.0,WeatherDisplay:10.37,2013-01-20 09:49:00,
2013-01-20 04:54:00,41.0,10.3,29.85,West,270,17.8,25.3,28,0.00,CLR,,0.00,0.0,WeatherDisplay:10.37,2013-01-20 09:54:00,
2013-01-20 04:59:00,40.8,8.5,29.85,West,270,21.5,26.5,26,0.00,CLR,,0.00,0.0,WeatherDisplay:10.37,2013-01-20 09:59:00,
2013-01-20 05:04:00,40.5,8.2,29.85,West,270,17.5,23.2,26,0.00,CLR,,0.00,0.0,WeatherDisplay:10.37,2013-01-20 10:04:00,
2013-01-20 05:09:00,40.1,9.6,29.85,West,270,15.0,20.7,28,0.00,CLR,,0.00,0.0,WeatherDisplay:10.37,2013-01-20 10:09:00,
2013-01-20 05:14:00,39.9,9.4,29.85,WNW,292,17.8,21.9,28,0.00,CLR,,0.00,0.0,WeatherDisplay:10.37,2013-01-20 10:14:00,
2013-01-20 05:19:00,39.7,9.2,29.85,West,270,17.0,23.0,28,0.00,CLR,,0.00,0.0,WeatherDisplay:10.37,2013-01-20 10:19:00,
2013-01-20 05:24:00,39.2,9.6,29.85,West,270,11.8,15.0,29,0.00,CLR,,0.00,0.0,WeatherDisplay:10.37,2013-01-20 10:24:00,
2013-01-20 05:29:00,39.0,9.4,29.85,West,270,10.0,15.0,29,0.00,CLR,,0.00,0.0,WeatherDisplay:10.37,2013-01-20 10:29:00,
2013-01-20 05:34:00,38.8,9.2,29.85,WNW,292,8.7,11.5,29,0.00,CLR,,0.00,0.0,WeatherDisplay:10.37,2013-01-20 10:34:00,
2013-01-20 05:39:00,38.7,9.1,29.85,West,270,15.0,17.5,29,0.00,CLR,,0.00,0.0,WeatherDisplay:10.37,2013-01-20 10:39:00,
2013-01-20 05:44:00,38.3,8.8,29.85,WSW,248,12.8,17.3,29,0.00,CLR,,0.00,0.0,WeatherDisplay:10.37,2013-01-20 10:44:00,
2013-01-20 05:49:00,37.9,8.5,29.85,West,270,14.0,15.4,29,0.00,CLR,,0.00,0.0,WeatherDisplay:10.37,2013-01-20 10:49:00,
2013-01-20 05:54:00,37.2,7.8,29.88,West,270,11.4,19.7,29,0.00,CLR,,0.00,0.0,WeatherDisplay:10.37,2013-01-20 10:54:00,
2013-01-20 05:59:00,37.0,7.7,29.88,West,270,13.7,20.7,29,0.00,CLR,,0.00,0.0,WeatherDisplay:10.37,2013-01-20 10:59:00,
2013-01-20 06:04:00,36.5,3.1,29.88,West,270,17.5,17.5,24,0.00,CLR,,0.00,0.0,WeatherDisplay:10.37,2013-01-20 11:04:00,
2013-01-20 06:09:00,36.1,0.9,29.88,West,270,19.2,26.5,22,0.00,CLR,,0.00,0.0,WeatherDisplay:10.37,2013-01-20 11:09:00,
2013-01-20 06:14:00,35.6,0.4,29.88,West,270,17.0,21.9,22,0.00,CLR,,0.00,0.0,WeatherDisplay:10.37,2013-01-20 11:14:00,
2013-01-20 06:19:00,35.2,0.1,29.88,West,270,12.8,13.8,22,0.00,CLR,,0.00,0.0,WeatherDisplay:10.37,2013-01-20 11:19:00,
2013-01-20 06:24:00,34.5,-0.5,29.91,NW,315,20.6,25.3,22,0.00,CLR,,0.00,0.0,WeatherDisplay:10.37,2013-01-20 11:24:00,
2013-01-20 06:29:00,34.2,-0.8,29.91,WSW,248,15.0,21.0,22,0.00,CLR,,0.00,0.0,WeatherDisplay:10.37,2013-01-20 11:29:00,
2013-01-20 06:34:00,33.6,-0.3,29.91,West,270,15.9,25.3,23,0.00,CLR,,0.00,0.0,WeatherDisplay:10.37,2013-01-20 11:34:00,
2013-01-20 06:39:00,33.3,-0.6,29.91,West,270,13.2,15.0,23,0.00,CLR,,0.00,0.0,WeatherDisplay:10.37,2013-01-20 11:39:00,
2013-01-20 06:44:00,33.1,-0.8,29.91,West,270,12.3,15.0,23,0.00,CLR,,0.00,0.0,WeatherDisplay:10.37,2013-01-20 11:44:00,
2013-01-20 06:49:00,32.7,-1.1,29.91,West,270,10.9,18.4,23,0.00,CLR,,0.00,0.0,WeatherDisplay:10.37,2013-01-20 11:49:00,
2013-01-20 06:54:00,32.5,0.5,29.91,West,270,12.8,17.3,25,0.00,CLR,,0.00,0.0,WeatherDisplay:10.37,2013-01-20 11:54:00,
2013-01-20 06:59:00,32.4,0.4,29.91,West,270,15.9,17.3,25,0.00,CLR,,0.00,0.0,WeatherDisplay:10.37,2013-01-20 11:59:00,
2013-01-20 07:04:00,32.2,0.2,29.91,West,270,11.4,17.0,25,0.00,CLR,,0.00,0.0,WeatherDisplay:10.37,2013-01-20 12:04:00,
2013-01-20 07:09:00,32.0,-1.7,29.94,WNW,292,16.8,21.9,23,0.00,CLR,,0.00,0.0,WeatherDisplay:10.37,2013-01-20 12:09:00,
2013-01-20 07:14:00,31.5,-2.2,29.94,NW,315,11.4,24.2,23,0.00,CLR,,0.00,0.0,WeatherDisplay:10.37,2013-01-20 12:14:00,
2013-01-20 07:19:00,31.1,-2.5,29.94,West,270,15.4,21.9,23,0.00,OVC,,0.00,0.0,WeatherDisplay:10.37,2013-01-20 12:19:00,
2013-01-20 07:24:00,30.6,-2.9,29.94,NW,315,15.0,17.3,23,0.00,OVC,,0.00,0.0,WeatherDisplay:10.37,2013-01-20 12:24:00,
2013-01-20 07:29:00,30.2,-3.2,29.94,NW,315,14.5,18.7,23,0.00,OVC,,0.00,0.0,WeatherDisplay:10.37,2013-01-20 12:29:00,
2013-01-20 07:34:00,30.0,-3.4,29.94,NW,315,12.3,19.6,23,0.00,OVC,,0.00,0.0,WeatherDisplay:10.37,2013-01-20 12:34:00,
2013-01-20 07:39:00,29.7,-1.9,29.97,West,270,12.3,15.0,25,0.00,OVC,,0.00,0.0,WeatherDisplay:10.37,2013-01-20 12:39:00,
2013-01-20 07:44:00,29.5,-2.1,29.97,WNW,292,6.7,12.3,25,0.00,OVC,,0.00,0.0,WeatherDisplay:10.37,2013-01-20 12:44:00,
2013-01-20 07:50:00,29.3,-2.2,29.97,NW,315,10.0,15.0,25,0.00,OVC,,0.00,0.0,WeatherDisplay:10.37,2013-01-20 12:50:00,
2013-01-20 07:55:00,28.9,-2.5,29.97,West,270,15.0,17.3,25,0.00,OVC,,0.00,0.0,WeatherDisplay:10.37,2013-01-20 12:55:00,
2013-01-20 08:00:00,28.9,-2.5,29.97,WNW,301,15.0,22.0,25,0.00,OVC,,0.00,0.0,WeatherDisplay:10.37,2013-01-20 13:00:00,
2013-01-20 08:05:00,28.6,-2.9,29.97,NW,315,13.2,20.7,25,0.00,OVC,,0.00,0.0,WeatherDisplay:10.37,2013-01-20 13:05:00,
2013-01-20 08:10:00,28.6,-2.9,29.97,NW,315,12.8,15.0,25,0.00,OVC,,0.00,0.0,WeatherDisplay:10.37,2013-01-20 13:10:00,
2013-01-20 08:15:00,28.6,-2.9,29.97,West,270,12.8,18.4,25,0.00,OVC,,0.00,0.0,WeatherDisplay:10.37,2013-01-20 13:15:00,
2013-01-20 08:20:00,28.6,-2.9,29.97,WNW,292,8.7,15.0,25,0.00,OVC,,0.00,0.0,WeatherDisplay:10.37,2013-01-20 13:20:00,
2013-01-20 08:25:00,28.2,-2.3,30.00,NW,315,10.9,11.5,26,0.00,OVC,,0.00,0.0,WeatherDisplay:10.37,2013-01-20 13:25:00,
2013-01-20 08:30:00,28.2,-2.3,30.00,NW,315,9.7,12.7,26,0.00,OVC,,0.00,0.0,WeatherDisplay:10.37,2013-01-20 13:30:00,
2013-01-20 08:36:00,28.2,-2.3,30.00,NW,315,15.0,17.3,26,0.00,OVC,,0.00,0.0,WeatherDisplay:10.37,2013-01-20 13:36:00,
2013-01-20 08:41:00,28.0,-2.5,30.00,West,270,13.7,17.5,26,0.00,OVC,,0.00,0.0,WeatherDisplay:10.37,2013-01-20 13:41:00,
2013-01-20 08:46:00,28.0,-2.5,30.00,West,270,10.5,17.3,26,0.00,OVC,,0.00,0.0,WeatherDisplay:10.37,2013-01-20 13:46:00,
2013-01-20 08:51:00,28.2,-2.3,30.00,NW,315,9.2,17.3,26,0.00,OVC,,0.00,0.0,WeatherDisplay:10.37,2013-01-20 13:51:00,
2013-01-20 08:56:00,28.0,-2.5,30.03,WNW,292,15.0,20.7,26,0.00,OVC,,0.00,100.0,WeatherDisplay:10.37,2013-01-20 13:56:00,
2013-01-20 09:01:00,27.9,-2.7,30.03,West,270,11.4,15.0,26,0.00,OVC,,0.00,100.0,WeatherDisplay:10.37,2013-01-20 14:01:00,
2013-01-20 09:06:00,27.9,-2.7,30.03,NW,315,12.8,20.6,26,0.00,OVC,,0.00,100.0,WeatherDisplay:10.37,2013-01-20 14:06:00,
2013-01-20 09:11:00,27.7,-2.8,30.03,WNW,292,15.4,17.3,26,0.00,OVC,,0.00,100.0,WeatherDisplay:10.37,2013-01-20 14:11:00,
2013-01-20 09:16:00,27.9,-2.7,30.03,WNW,292,9.2,15.0,26,0.00,OVC,,0.00,100.0,WeatherDisplay:10.37,2013-01-20 14:16:00,
2013-01-20 09:21:00,27.7,-2.8,30.03,NW,315,12.3,17.3,26,0.00,OVC,,0.00,100.0,WeatherDisplay:10.37,2013-01-20 14:21:00,
2013-01-20 09:26:00,27.5,-3.0,30.03,West,270,13.2,17.8,26,0.00,OVC,,0.00,100.0,WeatherDisplay:10.37,2013-01-20 14:26:00,
2013-01-20 09:31:00,27.5,-3.0,30.03,WNW,292,15.9,17.3,26,0.00,OVC,,0.00,100.0,WeatherDisplay:10.37,2013-01-20 14:31:00,
2013-01-20 09:36:00,27.7,-2.8,30.03,West,270,10.5,17.3,26,0.00,OVC,,0.00,100.0,WeatherDisplay:10.37,2013-01-20 14:36:00,
2013-01-20 09:41:00,27.5,-3.0,30.06,WNW,292,14.5,17.8,26,0.00,OVC,,0.00,200.0,WeatherDisplay:10.37,2013-01-20 14:41:00,
2013-01-20 09:46:00,27.5,-3.0,30.06,WNW,292,10.0,17.3,26,0.00,OVC,,0.00,200.0,WeatherDisplay:10.37,2013-01-20 14:46:00,
2013-01-20 09:51:00,27.5,-3.0,30.06,WNW,292,10.5,15.0,26,0.00,OVC,,0.00,200.0,WeatherDisplay:10.37,2013-01-20 14:51:00,
2013-01-20 09:56:00,27.7,-2.8,30.06,West,270,10.9,15.0,26,0.00,OVC,,0.00,200.0,WeatherDisplay:10.37,2013-01-20 14:56:00,
2013-01-20 10:01:00,27.9,-2.7,30.06,WNW,292,8.3,12.7,26,0.00,OVC,,0.00,200.0,WeatherDisplay:10.37,2013-01-20 15:01:00,
2013-01-20 10:06:00,27.5,-3.0,30.06,West,270,10.5,12.8,26,0.00,OVC,,0.00,200.0,WeatherDisplay:10.37,2013-01-20 15:06:00,
2013-01-20 10:11:00,27.1,-3.3,30.06,NW,315,15.9,21.9,26,0.00,OVC,,0.00,200.0,WeatherDisplay:10.37,2013-01-20 15:11:00,
2013-01-20 10:16:00,27.7,-2.8,30.06,NW,315,12.8,13.8,26,0.00,OVC,,0.00,200.0,WeatherDisplay:10.37,2013-01-20 15:16:00,
2013-01-20 10:21:00,27.7,-2.8,30.06,West,270,13.2,16.3,26,0.00,OVC,,0.00,200.0,WeatherDisplay:10.37,2013-01-20 15:21:00,
2013-01-20 10:26:00,27.9,-2.7,30.09,West,270,10.5,12.8,26,0.00,OVC,,0.00,200.0,WeatherDisplay:10.37,2013-01-20 15:26:00,
2013-01-20 10:31:00,28.4,-2.2,30.09,WNW,292,12.8,14.5,26,0.00,OVC,,0.00,300.0,WeatherDisplay:10.37,2013-01-20 15:31:00,
2013-01-20 10:36:00,27.9,-2.7,30.09,West,270,10.5,15.0,26,0.00,OVC,,0.00,300.0,WeatherDisplay:10.37,2013-01-20 15:36:00,
2013-01-20 10:41:00,27.9,-2.7,30.09,WNW,292,16.3,20.1,26,0.00,OVC,,0.00,300.0,WeatherDisplay:10.37,2013-01-20 15:41:00,
2013-01-20 10:46:00,27.7,-2.8,30.09,NW,315,10.9,18.4,26,0.00,OVC,,0.00,300.0,WeatherDisplay:10.37,2013-01-20 15:46:00,
2013-01-20 10:51:00,27.7,-2.8,30.09,West,270,11.4,19.7,26,0.00,OVC,,0.00,400.0,WeatherDisplay:10.37,2013-01-20 15:51:00,
2013-01-20 10:56:00,27.7,-2.8,30.09,West,270,11.4,15.0,26,0.00,OVC,,0.00,400.0,WeatherDisplay:10.37,2013-01-20 15:56:00,
2013-01-20 11:01:00,27.3,-3.1,30.09,WNW,292,10.9,17.3,26,0.00,OVC,,0.00,400.0,WeatherDisplay:10.37,2013-01-20 16:01:00,
2013-01-20 11:06:00,27.9,-2.7,30.09,West,270,8.3,12.7,26,0.00,OVC,,0.00,400.0,WeatherDisplay:10.37,2013-01-20 16:06:00,
2013-01-20 11:11:00,28.2,-2.3,30.09,West,270,11.4,13.8,26,0.00,OVC,,0.00,500.0,WeatherDisplay:10.37,2013-01-20 16:11:00,
2013-01-20 11:16:00,28.6,-2.9,30.09,NW,315,12.3,15.4,25,0.00,OVC,,0.00,500.0,WeatherDisplay:10.37,2013-01-20 16:16:00,
2013-01-20 11:21:00,28.2,-2.3,30.09,NW,315,11.8,17.3,26,0.00,OVC,,0.00,500.0,WeatherDisplay:10.37,2013-01-20 16:21:00,
2013-01-20 11:26:00,28.6,-2.9,30.09,SW,225,8.1,12.8,25,0.00,OVC,,0.00,500.0,WeatherDisplay:10.37,2013-01-20 16:26:00,
2013-01-20 11:31:00,28.2,-2.3,30.09,West,270,12.8,15.0,26,0.00,OVC,,0.00,500.0,WeatherDisplay:10.37,2013-01-20 16:31:00,
2013-01-20 11:36:00,28.8,-2.7,30.09,WNW,292,10.0,15.0,25,0.00,OVC,,0.00,500.0,WeatherDisplay:10.37,2013-01-20 16:36:00,
2013-01-20 11:41:00,28.4,-2.2,30.09,NW,315,8.7,11.5,26,0.00,OVC,,0.00,500.0,WeatherDisplay:10.37,2013-01-20 16:41:00,
2013-01-20 11:46:00,28.6,-2.9,30.09,WNW,292,10.0,15.0,25,0.00,OVC,,0.00,500.0,WeatherDisplay:10.37,2013-01-20 16:46:00,
2013-01-20 11:51:00,28.6,-2.9,30.09,West,270,11.8,12.8,25,0.00,OVC,,0.00,500.0,WeatherDisplay:10.37,2013-01-20 16:51:00,
2013-01-20 11:56:00,28.9,-2.5,30.09,West,270,6.2,8.1,25,0.00,OVC,,0.00,500.0,WeatherDisplay:10.37,2013-01-20 16:56:00,
2013-01-20 12:01:00,28.6,-2.9,30.09,WNW,292,11.4,17.3,25,0.00,OVC,,0.00,500.0,WeatherDisplay:10.37,2013-01-20 17:01:00,
2013-01-20 12:06:00,28.8,-2.7,30.09,WNW,292,9.2,13.8,25,0.00,OVC,,0.00,500.0,WeatherDisplay:10.37,2013-01-20 17:06:00,
2013-01-20 12:11:00,28.6,-2.9,30.09,NW,315,10.0,12.7,25,0.00,OVC,,0.00,500.0,WeatherDisplay:10.37,2013-01-20 17:11:00,
2013-01-20 12:16:00,28.2,-2.3,30.09,WNW,292,8.7,12.7,26,0.00,OVC,,0.00,500.0,WeatherDisplay:10.37,2013-01-20 17:16:00,
2013-01-20 12:21:00,28.4,-2.2,30.09,West,270,11.8,13.8,26,0.00,OVC,,0.00,500.0,WeatherDisplay:10.37,2013-01-20 17:21:00,
2013-01-20 12:26:00,28.8,-2.7,30.09,WNW,292,8.1,9.2,25,0.00,OVC,,0.00,500.0,WeatherDisplay:10.37,2013-01-20 17:26:00,
2013-01-20 12:31:00,28.6,-2.9,30.09,WNW,292,9.7,13.2,25,0.00,OVC,,0.00,500.0,WeatherDisplay:10.37,2013-01-20 17:31:00,
2013-01-20 12:36:00,28.6,-2.9,30.09,West,270,11.4,15.0,25,0.00,OVC,,0.00,500.0,WeatherDisplay:10.37,2013-01-20 17:36:00,
2013-01-20 12:41:00,28.6,-2.9,30.09,NW,315,12.8,17.3,25,0.00,OVC,,0.00,500.0,WeatherDisplay:10.37,2013-01-20 17:41:00,
2013-01-20 12:46:00,28.6,-2.9,30.09,WNW,292,9.2,15.4,25,0.00,OVC,,0.00,500.0,WeatherDisplay:10.37,2013-01-20 17:46:00,
2013-01-20 12:51:00,28.6,-2.9,30.09,West,270,7.6,12.7,25,0.00,OVC,,0.00,400.0,WeatherDisplay:10.37,2013-01-20 17:51:00,
2013-01-20 12:56:00,29.5,-2.1,30.09,NW,315,6.2,11.5,25,0.00,OVC,,0.00,500.0,WeatherDisplay:10.37,2013-01-20 17:56:00,
2013-01-20 13:01:00,29.5,-2.1,30.09,West,270,8.3,15.0,25,0.00,OVC,,0.00,500.0,WeatherDisplay:10.37,2013-01-20 18:01:00,
2013-01-20 13:06:00,29.1,-2.4,30.09,West,270,9.2,11.5,25,0.00,OVC,,0.00,400.0,WeatherDisplay:10.37,2013-01-20 18:06:00,
2013-01-20 13:11:00,29.1,-2.4,30.09,NW,315,7.1,12.8,25,0.00,OVC,,0.00,400.0,WeatherDisplay:10.37,2013-01-20 18:11:00,
2013-01-20 13:16:00,28.9,-2.5,30.09,WSW,248,8.1,10.5,25,0.00,OVC,,0.00,400.0,WeatherDisplay:10.37,2013-01-20 18:16:00,
2013-01-20 13:21:00,29.5,-2.1,30.09,WSW,248,6.7,14.5,25,0.00,OVC,,0.00,400.0,WeatherDisplay:10.37,2013-01-20 18:21:00,
2013-01-20 13:26:00,29.3,-2.2,30.09,WNW,292,9.7,11.8,25,0.00,OVC,,0.00,400.0,WeatherDisplay:10.37,2013-01-20 18:26:00,
2013-01-20 13:31:00,29.3,-2.2,30.09,WNW,292,10.0,12.7,25,0.00,OVC,,0.00,300.0,WeatherDisplay:10.37,2013-01-20 18:31:00,
2013-01-20 13:36:00,28.9,-2.5,30.09,West,270,8.3,12.7,25,0.00,OVC,,0.00,400.0,WeatherDisplay:10.37,2013-01-20 18:36:00,
2013-01-20 13:41:00,29.1,-2.4,30.09,NW,315,7.6,12.7,25,0.00,OVC,,0.00,400.0,WeatherDisplay:10.37,2013-01-20 18:41:00,
2013-01-20 13:46:00,29.3,-2.2,30.09,WNW,292,7.6,8.7,25,0.00,OVC,,0.00,300.0,WeatherDisplay:10.37,2013-01-20 18:46:00,
2013-01-20 13:51:00,28.6,-2.9,30.09,NW,315,8.1,9.2,25,0.00,OVC,,0.00,300.0,WeatherDisplay:10.37,2013-01-20 18:51:00,
2013-01-20 13:56:00,28.4,-2.2,30.09,West,270,8.3,12.3,26,0.00,OVC,,0.00,300.0,WeatherDisplay:10.37,2013-01-20 18:56:00,
2013-01-20 14:01:00,28.0,-2.5,30.09,NW,315,8.1,10.4,26,0.00,OVC,,0.00,300.0,WeatherDisplay:10.37,2013-01-20 19:01:00,
2013-01-20 14:06:00,28.6,-2.9,30.09,WNW,292,7.1,10.5,25,0.00,OVC,,0.00,300.0,WeatherDisplay:10.37,2013-01-20 19:06:00,
2013-01-20 14:11:00,28.6,-2.9,30.06,West,270,7.6,8.7,25,0.00,OVC,,0.00,300.0,WeatherDisplay:10.37,2013-01-20 19:11:00,
2013-01-20 14:16:00,28.8,-2.7,30.06,West,270,7.6,12.3,25,0.00,OVC,,0.00,300.0,WeatherDisplay:10.37,2013-01-20 19:16:00,
2013-01-20 14:21:00,28.4,-2.2,30.06,West,270,7.1,9.2,26,0.00,OVC,,0.00,300.0,WeatherDisplay:10.37,2013-01-20 19:21:00,
2013-01-20 14:26:00,28.4,-2.2,30.09,West,270,7.6,9.7,26,0.00,OVC,,0.00,300.0,WeatherDisplay:10.37,2013-01-20 19:26:00,
2013-01-20 14:31:00,28.9,-2.5,30.09,WNW,292,9.2,10.9,25,0.00,OVC,,0.00,300.0,WeatherDisplay:10.37,2013-01-20 19:31:00,
2013-01-20 14:36:00,28.6,-2.9,30.09,West,270,7.1,13.8,25,0.00,OVC,,0.00,300.0,WeatherDisplay:10.37,2013-01-20 19:36:00,
2013-01-20 14:41:00,28.4,-2.2,30.06,West,270,7.6,9.2,26,0.00,OVC,,0.00,300.0,WeatherDisplay:10.37,2013-01-20 19:41:00,
2013-01-20 14:46:00,28.9,-2.5,30.06,WNW,292,10.0,14.5,25,0.00,OVC,,0.00,300.0,WeatherDisplay:10.37,2013-01-20 19:46:00,
2013-01-20 14:51:00,28.9,-2.5,30.06,West,270,8.3,12.3,25,0.00,OVC,,0.00,300.0,WeatherDisplay:10.37,2013-01-20 19:51:00,
2013-01-20 14:56:00,28.6,-2.9,30.06,WNW,292,10.5,13.8,25,0.00,OVC,,0.00,300.0,WeatherDisplay:10.37,2013-01-20 19:56:00,
2013-01-20 15:01:00,28.6,-2.9,30.06,West,270,8.1,13.8,25,0.00,OVC,,0.00,300.0,WeatherDisplay:10.37,2013-01-20 20:01:00,
2013-01-20 15:06:00,28.8,-2.7,30.06,West,270,8.7,10.0,25,0.00,OVC,,0.00,300.0,WeatherDisplay:10.37,2013-01-20 20:06:00,
2013-01-20 15:11:00,29.1,-2.4,30.09,NW,315,6.7,10.5,25,0.00,OVC,,0.00,300.0,WeatherDisplay:10.37,2013-01-20 20:11:00,
2013-01-20 15:16:00,28.8,-2.7,30.09,West,270,5.9,9.2,25,0.00,OVC,,0.00,300.0,WeatherDisplay:10.37,2013-01-20 20:16:00,
2013-01-20 15:21:00,28.6,-2.9,30.09,NW,315,10.9,13.8,25,0.00,OVC,,0.00,300.0,WeatherDisplay:10.37,2013-01-20 20:21:00,
2013-01-20 15:26:00,28.8,-2.7,30.06,WSW,248,8.7,12.7,25,0.00,OVC,,0.00,200.0,WeatherDisplay:10.37,2013-01-20 20:26:00,
2013-01-20 15:31:00,29.1,-2.4,30.06,West,270,8.1,9.2,25,0.00,OVC,,0.00,200.0,WeatherDisplay:10.37,2013-01-20 20:31:00,
2013-01-20 15:36:00,28.9,-2.5,30.06,West,270,8.1,12.7,25,0.00,OVC,,0.00,200.0,WeatherDisplay:10.37,2013-01-20 20:36:00,
2013-01-20 15:41:00,29.3,-2.2,30.06,NW,315,8.1,12.3,25,0.00,OVC,,0.00,200.0,WeatherDisplay:10.37,2013-01-20 20:41:00,
2013-01-20 15:46:00,28.9,-2.5,30.06,West,270,8.3,10.4,25,0.00,OVC,,0.00,100.0,WeatherDisplay:10.37,2013-01-20 20:46:00,
2013-01-20 15:51:00,28.6,-2.9,30.06,West,270,6.7,9.2,25,0.00,OVC,,0.00,100.0,WeatherDisplay:10.37,2013-01-20 20:51:00,
2013-01-20 15:57:00,28.0,-2.5,30.06,WSW,248,10.5,13.8,26,0.00,OVC,,0.00,100.0,WeatherDisplay:10.37,2013-01-20 20:57:00,
2013-01-20 16:02:00,28.4,-2.2,30.06,WNW,292,6.7,10.4,26,0.00,OVC,,0.00,100.0,WeatherDisplay:10.37,2013-01-20 21:02:00,
2013-01-20 16:07:00,28.9,-2.5,30.09,WNW,292,9.7,11.5,25,0.00,OVC,,0.00,100.0,WeatherDisplay:10.37,2013-01-20 21:07:00,
2013-01-20 16:12:00,28.9,-2.5,30.09,West,270,8.7,11.5,25,0.00,OVC,,0.00,100.0,WeatherDisplay:10.37,2013-01-20 21:12:00,
2013-01-20 16:17:00,28.6,-2.9,30.09,West,270,9.7,12.8,25,0.00,OVC,,0.00,100.0,WeatherDisplay:10.37,2013-01-20 21:17:00,
2013-01-20 16:22:00,28.2,-2.3,30.09,WNW,292,9.7,12.7,26,0.00,OVC,,0.00,100.0,WeatherDisplay:10.37,2013-01-20 21:22:00,
2013-01-20 16:28:00,28.2,-2.3,30.09,NW,315,8.7,11.5,26,0.00,OVC,,0.00,100.0,WeatherDisplay:10.37,2013-01-20 21:28:00,
2013-01-20 16:33:00,27.9,-2.7,30.09,West,270,9.2,11.5,26,0.00,OVC,,0.00,100.0,WeatherDisplay:10.37,2013-01-20 21:33:00,
2013-01-20 16:38:00,27.9,-2.7,30.09,NW,315,7.6,13.8,26,0.00,OVC,,0.00,0.0,WeatherDisplay:10.37,2013-01-20 21:38:00,
2013-01-20 16:43:00,27.5,-3.0,30.09,West,270,8.3,11.5,26,0.00,OVC,,0.00,0.0,WeatherDisplay:10.37,2013-01-20 21:43:00,
2013-01-20 16:48:00,27.5,-3.0,30.09,NW,315,9.7,12.7,26,0.00,OVC,,0.00,0.0,WeatherDisplay:10.37,2013-01-20 21:48:00,
2013-01-20 16:53:00,27.1,-3.3,30.09,West,270,5.4,8.1,26,0.00,OVC,,0.00,0.0,WeatherDisplay:10.37,2013-01-20 21:53:00,
2013-01-20 16:58:00,27.1,-3.3,30.09,NW,315,6.2,6.9,26,0.00,OVC,,0.00,0.0,WeatherDisplay:10.37,2013-01-20 21:58:00,
2013-01-20 17:03:00,27.0,-3.4,30.09,WNW,292,6.7,9.2,26,0.00,OVC,,0.00,0.0,WeatherDisplay:10.37,2013-01-20 22:03:00,
2013-01-20 17:08:00,27.0,-3.4,30.09,NW,315,7.6,9.2,26,0.00,OVC,,0.00,0.0,WeatherDisplay:10.37,2013-01-20 22:08:00,
2013-01-20 17:13:00,27.0,-3.4,30.09,WNW,292,6.2,10.4,26,0.00,OVC,,0.00,0.0,WeatherDisplay:10.37,2013-01-20 22:13:00,
2013-01-20 17:18:00,27.0,-3.4,30.09,WNW,292,7.1,8.3,26,0.00,OVC,,0.00,0.0,WeatherDisplay:10.37,2013-01-20 22:18:00,
2013-01-20 17:23:00,27.0,-3.4,30.09,West,270,4.9,5.8,26,0.00,OVC,,0.00,0.0,WeatherDisplay:10.37,2013-01-20 22:23:00,
2013-01-20 17:28:00,27.0,-3.4,30.09,NW,315,8.3,10.0,26,0.00,OVC,,0.00,0.0,WeatherDisplay:10.37,2013-01-20 22:28:00,
2013-01-20 17:33:00,26.8,-3.6,30.09,NW,315,6.7,9.2,26,0.00,OVC,,0.00,0.0,WeatherDisplay:10.37,2013-01-20 22:33:00,
2013-01-20 17:38:00,26.6,-3.7,30.09,West,270,6.2,11.5,26,0.00,OVC,,0.00,0.0,WeatherDisplay:10.37,2013-01-20 22:38:00,
2013-01-20 17:43:00,26.4,-3.9,30.09,WNW,292,7.6,10.9,26,0.00,OVC,,0.00,0.0,WeatherDisplay:10.37,2013-01-20 22:43:00,
2013-01-20 17:48:00,26.6,-3.7,30.09,NW,315,5.4,9.2,26,0.00,OVC,,0.00,0.0,WeatherDisplay:10.37,2013-01-20 22:48:00,
2013-01-20 17:53:00,26.4,-3.9,30.09,WNW,292,11.8,15.0,26,0.00,OVC,,0.00,0.0,WeatherDisplay:10.37,2013-01-20 22:53:00,
2013-01-20 17:58:00,26.2,-4.1,30.09,NW,315,9.2,12.7,26,0.00,OVC,,0.00,0.0,WeatherDisplay:10.37,2013-01-20 22:58:00,
2013-01-20 18:03:00,26.1,-4.2,30.09,NW,315,4.5,8.1,26,0.00,CLR,,0.00,0.0,WeatherDisplay:10.37,2013-01-20 23:03:00,
2013-01-20 18:08:00,26.1,-4.2,30.15,WNW,292,6.7,10.5,26,0.00,CLR,,0.00,0.0,WeatherDisplay:10.37,2013-01-20 23:08:00,
2013-01-20 18:13:00,25.7,-4.5,30.15,West,270,6.7,11.5,26,0.00,CLR,,0.00,0.0,WeatherDisplay:10.37,2013-01-20 23:13:00,
2013-01-20 18:18:00,25.3,-4.8,30.15,WNW,292,6.7,8.3,26,0.00,CLR,,0.00,0.0,WeatherDisplay:10.37,2013-01-20 23:18:00,
2013-01-20 18:23:00,25.2,-5.0,30.12,West,270,8.1,9.2,26,0.00,CLR,,0.00,0.0,WeatherDisplay:10.37,2013-01-20 23:23:00,
2013-01-20 18:28:00,25.0,-5.1,30.12,NW,315,8.1,9.2,26,0.00,CLR,,0.00,0.0,WeatherDisplay:10.37,2013-01-20 23:28:00,
2013-01-20 18:33:00,24.8,-3.0,30.12,West,270,6.2,8.3,29,0.00,CLR,,0.00,0.0,WeatherDisplay:10.37,2013-01-20 23:33:00,
2013-01-20 18:38:00,24.6,-3.2,30.12,NW,315,4.9,6.9,29,0.00,CLR,,0.00,0.0,WeatherDisplay:10.37,2013-01-20 23:38:00,
2013-01-20 18:43:00,24.4,-3.3,30.12,West,270,5.9,5.9,29,0.00,CLR,,0.00,0.0,WeatherDisplay:10.37,2013-01-20 23:43:00,
2013-01-20 18:48:00,24.3,-3.5,30.12,NW,315,6.7,8.1,29,0.00,CLR,,0.00,0.0,WeatherDisplay:10.37,2013-01-20 23:48:00,
2013-01-20 18:53:00,24.3,-3.5,30.18,West,270,5.4,6.9,29,0.00,CLR,,0.00,0.0,WeatherDisplay:10.37,2013-01-20 23:53:00,
2013-01-20 18:58:00,24.1,-3.6,30.18,West,270,5.9,8.1,29,0.00,CLR,,0.00,0.0,WeatherDisplay:10.37,2013-01-20 23:58:00,
2013-01-20 19:03:00,23.9,-3.8,30.18,NW,315,5.4,8.1,29,0.00,CLR,,0.00,0.0,WeatherDisplay:10.37,2013-01-21 00:03:00,
2013-01-20 19:09:00,23.7,-4.0,30.12,NW,315,4.0,5.8,29,0.00,CLR,,0.00,0.0,WeatherDisplay:10.37,2013-01-21 00:09:00,
2013-01-20 19:14:00,23.7,-4.0,30.12,NW,315,4.9,5.9,29,0.00,CLR,,0.00,0.0,WeatherDisplay:10.37,2013-01-21 00:14:00,
2013-01-20 19:19:00,23.5,-4.1,30.12,NW,315,4.0,5.4,29,0.00,CLR,,0.00,0.0,WeatherDisplay:10.37,2013-01-21 00:19:00,
2013-01-20 19:24:00,23.4,-4.3,30.12,NW,315,3.6,4.9,29,0.00,CLR,,0.00,0.0,WeatherDisplay:10.37,2013-01-21 00:24:00,
2013-01-20 19:29:00,23.4,-4.3,30.12,NW,315,5.9,8.1,29,0.00,CLR,,0.00,0.0,WeatherDisplay:10.37,2013-01-21 00:29:00,
2013-01-20 19:34:00,23.4,-4.3,30.12,WNW,292,5.4,9.7,29,0.00,CLR,,0.00,0.0,WeatherDisplay:10.37,2013-01-21 00:34:00,
2013-01-20 19:39:00,23.4,-4.3,30.12,WNW,292,4.9,6.9,29,0.00,CLR,,0.00,0.0,WeatherDisplay:10.37,2013-01-21 00:39:00,
2013-01-20 19:44:00,23.2,-4.4,30.12,West,270,6.7,8.1,29,0.00,CLR,,0.00,0.0,WeatherDisplay:10.37,2013-01-21 00:44:00,
2013-01-20 19:49:00,23.2,-4.4,30.12,NW,315,4.5,7.6,29,0.00,CLR,,0.00,0.0,WeatherDisplay:10.37,2013-01-21 00:49:00,
2013-01-20 19:54:00,23.0,-2.5,30.15,NW,315,3.6,5.9,32,0.00,CLR,,0.00,0.0,WeatherDisplay:10.37,2013-01-21 00:54:00,
2013-01-20 19:59:00,22.8,-2.7,30.15,NW,315,3.6,8.3,32,0.00,CLR,,0.00,0.0,WeatherDisplay:10.37,2013-01-21 00:59:00,
2013-01-20 20:04:00,22.8,-2.7,30.15,NW,315,5.4,6.2,32,0.00,CLR,,0.00,0.0,WeatherDisplay:10.37,2013-01-21 01:04:00,
2013-01-20 20:09:00,22.8,-2.7,30.12,NW,315,4.5,5.9,32,0.00,CLR,,0.00,0.0,WeatherDisplay:10.37,2013-01-21 01:09:00,
2013-01-20 20:14:00,22.8,-2.7,30.12,NW,315,4.5,5.8,32,0.00,CLR,,0.00,0.0,WeatherDisplay:10.37,2013-01-21 01:14:00,
2013-01-20 20:19:00,22.6,-2.8,30.12,WNW,292,5.4,8.1,32,0.00,CLR,,0.00,0.0,WeatherDisplay:10.37,2013-01-21 01:19:00,
2013-01-20 20:24:00,22.8,-2.7,30.09,West,270,5.4,6.2,32,0.00,CLR,,0.00,0.0,WeatherDisplay:10.37,2013-01-21 01:24:00,
2013-01-20 20:29:00,22.6,-2.8,30.09,NW,315,4.5,5.8,32,0.00,CLR,,0.00,0.0,WeatherDisplay:10.37,2013-01-21 01:29:00,
2013-01-20 20:34:00,22.6,-2.2,30.09,NW,315,5.9,8.1,33,0.00,CLR,,0.00,0.0,WeatherDisplay:10.37,2013-01-21 01:34:00,
2013-01-20 20:39:00,22.6,-2.2,30.18,WNW,292,4.9,5.8,33,0.00,CLR,,0.00,0.0,WeatherDisplay:10.37,2013-01-21 01:39:00,
2013-01-20 20:44:00,22.6,-2.2,30.18,NW,315,5.4,10.0,33,0.00,CLR,,0.00,0.0,WeatherDisplay:10.37,2013-01-21 01:44:00,
2013-01-20 20:49:00,22.6,-2.2,30.18,WNW,292,5.4,8.3,33,0.00,CLR,,0.00,0.0,WeatherDisplay:10.37,2013-01-21 01:49:00,
2013-01-20 20:54:00,22.6,-2.8,30.12,NW,315,8.1,10.4,32,0.00,CLR,,0.00,0.0,WeatherDisplay:10.37,2013-01-21 01:54:00,
2013-01-20 20:59:00,22.6,-2.8,30.12,NW,315,4.9,8.1,32,0.00,CLR,,0.00,0.0,WeatherDisplay:10.37,2013-01-21 01:59:00,
2013-01-20 21:04:00,22.6,-2.8,30.12,NNW,338,4.0,6.9,32,0.00,CLR,,0.00,0.0,WeatherDisplay:10.37,2013-01-21 02:04:00,
2013-01-20 21:09:00,22.6,-2.8,30.09,NW,315,7.6,8.1,32,0.00,CLR,,0.00,0.0,WeatherDisplay:10.37,2013-01-21 02:09:00,
2013-01-20 21:14:00,22.8,-2.7,30.09,West,270,7.1,9.2,32,0.00,CLR,,0.00,0.0,WeatherDisplay:10.37,2013-01-21 02:14:00,
2013-01-20 21:19:00,22.8,-2.7,30.09,West,270,6.2,9.2,32,0.00,CLR,,0.00,0.0,WeatherDisplay:10.37,2013-01-21 02:19:00,
2013-01-20 21:24:00,22.8,-2.7,30.09,WNW,292,5.9,8.1,32,0.00,CLR,,0.00,0.0,WeatherDisplay:10.37,2013-01-21 02:24:00,
2013-01-20 21:29:00,22.8,-2.7,30.09,West,270,7.1,8.7,32,0.00,CLR,,0.00,0.0,WeatherDisplay:10.37,2013-01-21 02:29:00,
2013-01-20 21:34:00,22.8,-2.7,30.09,NW,315,6.7,6.7,32,0.00,CLR,,0.00,0.0,WeatherDisplay:10.37,2013-01-21 02:34:00,
2013-01-20 21:39:00,22.8,-2.7,30.18,NW,315,5.4,5.9,32,0.00,CLR,,0.00,0.0,WeatherDisplay:10.37,2013-01-21 02:39:00,
2013-01-20 21:44:00,22.8,-2.7,30.18,NW,315,4.5,6.9,32,0.00,CLR,,0.00,0.0,WeatherDisplay:10.37,2013-01-21 02:44:00,
2013-01-20 21:49:00,22.8,-2.7,30.18,NW,315,5.4,6.9,32,0.00,CLR,,0.00,0.0,WeatherDisplay:10.37,2013-01-21 02:49:00,
2013-01-20 21:54:00,22.8,-2.7,30.09,NW,315,4.9,5.9,32,0.00,CLR,,0.00,0.0,WeatherDisplay:10.37,2013-01-21 02:54:00,
2013-01-20 21:59:00,22.8,-2.7,30.09,NW,315,4.5,6.2,32,0.00,CLR,,0.00,0.0,WeatherDisplay:10.37,2013-01-21 02:59:00,
2013-01-20 22:04:00,22.8,-2.7,30.09,West,270,4.0,8.1,32,0.00,CLR,,0.00,0.0,WeatherDisplay:10.37,2013-01-21 03:04:00,
2013-01-20 22:09:00,22.8,-2.7,30.09,NW,315,3.1,5.8,32,0.00,CLR,,0.00,0.0,WeatherDisplay:10.37,2013-01-21 03:09:00,
2013-01-20 22:14:00,22.8,-2.7,30.09,NW,315,3.6,4.6,32,0.00,CLR,,0.00,0.0,WeatherDisplay:10.37,2013-01-21 03:14:00,
2013-01-20 22:19:00,22.8,-2.7,30.09,NW,315,4.0,5.8,32,0.00,CLR,,0.00,0.0,WeatherDisplay:10.37,2013-01-21 03:19:00,
2013-01-20 22:24:00,22.8,-2.0,30.09,NW,315,4.5,5.8,33,0.00,CLR,,0.00,0.0,WeatherDisplay:10.37,2013-01-21 03:24:00,
2013-01-20 22:29:00,22.8,-2.7,30.09,West,270,3.6,4.9,32,0.00,CLR,,0.00,0.0,WeatherDisplay:10.37,2013-01-21 03:29:00,
2013-01-20 22:34:00,22.8,-2.0,30.09,NW,315,3.1,4.6,33,0.00,CLR,,0.00,0.0,WeatherDisplay:10.37,2013-01-21 03:34:00,
2013-01-20 22:39:00,22.8,-2.0,30.06,West,270,3.6,5.8,33,0.00,CLR,,0.00,0.0,WeatherDisplay:10.37,2013-01-21 03:39:00,
2013-01-20 22:44:00,22.8,-2.7,30.06,WNW,292,4.5,5.8,32,0.00,CLR,,0.00,0.0,WeatherDisplay:10.37,2013-01-21 03:44:00,
2013-01-20 22:49:00,22.8,-2.7,30.06,West,270,4.0,4.0,32,0.00,CLR,,0.00,0.0,WeatherDisplay:10.37,2013-01-21 03:49:00,
2013-01-20 22:55:00,22.8,-2.7,30.06,NW,315,6.7,8.1,32,0.00,CLR,,0.00,0.0,WeatherDisplay:10.37,2013-01-21 03:55:00,
2013-01-20 23:00:00,22.8,-2.7,30.06,WNW,292,8.1,9.2,32,0.00,CLR,,0.00,0.0,WeatherDisplay:10.37,2013-01-21 04:00:00,
2013-01-20 23:05:00,22.8,-2.7,30.06,WNW,292,5.4,8.1,32,0.00,CLR,,0.00,0.0,WeatherDisplay:10.37,2013-01-21 04:05:00,
2013-01-20 23:11:00,22.6,-2.8,30.06,NW,315,4.5,8.1,32,0.00,CLR,,0.00,0.0,WeatherDisplay:10.37,2013-01-21 04:11:00,
2013-01-20 23:16:00,22.6,-2.8,30.06,WNW,292,3.6,4.6,32,0.00,CLR,,0.00,0.0,WeatherDisplay:10.37,2013-01-21 04:16:00,
2013-01-20 23:21:00,22.6,-2.8,30.06,NW,315,4.0,5.8,32,0.00,CLR,,0.00,0.0,WeatherDisplay:10.37,2013-01-21 04:21:00,
2013-01-20 23:26:00,22.6,-2.8,30.06,NW,315,6.2,8.1,32,0.00,CLR,,0.00,0.0,WeatherDisplay:10.37,2013-01-21 04:26:00,
2013-01-20 23:31:00,22.6,-2.8,30.06,WNW,292,4.0,5.8,32,0.00,CLR,,0.00,0.0,WeatherDisplay:10.37,2013-01-21 04:31:00,
2013-01-20 23:36:00,22.6,-2.2,30.06,West,270,4.9,5.8,33,0.00,CLR,,0.00,0.0,WeatherDisplay:10.37,2013-01-21 04:36:00,
2013-01-20 23:41:00,22.6,-2.2,30.06,NW,315,2.6,4.6,33,0.00,CLR,,0.00,0.0,WeatherDisplay:10.37,2013-01-21 04:41:00,
2013-01-20 23:46:00,22.6,-2.2,30.06,West,270,3.6,5.8,33,0.00,CLR,,0.00,0.0,WeatherDisplay:10.37,2013-01-21 04:46:00,
2013-01-20 23:51:00,22.8,-2.0,30.06,West,270,6.2,6.9,33,0.00,CLR,,0.00,0.0,WeatherDisplay:10.37,2013-01-21 04:51:00,
2013-01-20 23:56:00,22.8,-2.0,30.06,NW,315,4.5,8.1,33,0.00,CLR,,0.00,0.0,WeatherDisplay:10.37,2013-01-21 04:56:00,